Location: Fayburg
(33.2693°N, 96.3878°W)
Time: 03:33:28
(UTC+00:00)

Daily predictions for brighter satellites

Satellite Brightness Start Highest point End
(mag) Time Altitude Azimuth Time Altitude Azimuth Time Altitude Azimuth
Cosmos 2034 Rocket 4.0 01:45:49 10° N 01:52:02 73° E 01:58:18 10° SSE
NOSS 3-4 (A) 3.3 01:48:49 10° SSW 01:54:33 73° ESE 02:00:31 10° NE
NOSS 3-4 (C) 3.3 01:48:56 10° SSW 01:54:39 72° ESE 02:00:37 10° NE
OBJECT-B 1.3 01:56:20 10° SSE 01:59:20 41° ENE 02:02:23 10° N
SAR-Lupe-1 4.3 01:55:55 10° NNE 01:59:22 46° E 02:02:48 10° S
SAR-Lupe-4 4.0 01:56:24 10° NNE 01:59:48 40° E 02:03:10 10° S
Cosmos 405 Rocket 2.7 01:57:01 10° S 02:00:47 63° E 02:04:41 10° NNE
Atlas Centaur 2 2.8 01:58:53 10° SSW 02:01:44 18° SSE 02:04:21 10° ESE
SJ-6B 3.2 01:58:31 10° SE 02:02:02 40° ENE 02:05:33 10° N
OAO 1 Rocket 4.5 01:57:36 10° WSW 02:02:55 69° SSE 02:08:14 10° E
ATLAS 2AS CENTAUR R/B 3.3 01:55:44 10° S 02:03:08 47° ESE 02:10:33 10° NE
Centaur D-1AR AC-39 3.5 01:59:15 10° WSW 02:05:52 23° SSW 02:08:59 10° SE
Cosmos 1437 Rocket 3.9 02:07:54 10° NNE 02:11:10 26° ENE 02:14:11 11° SE
Resurs 01 Rocket 3.3 02:08:56 10° ESE 02:11:52 18° ENE 02:14:48 10° NNE
Cosmos 1812 Rocket 3.9 02:09:29 10° N 02:13:57 71° W 02:18:23 10° S
Cosmos 1408 2.5 02:11:15 10° S 02:14:53 78° E 02:18:31 10° N
CZ-4 R/B 4.2 02:14:23 10° SW 02:17:10 17° W 02:20:00 10° NW
Cosmos 1825 Rocket 3.6 02:14:49 10° S 02:19:10 85° W 02:23:30 10° N
RESURS DK-1 3.9 02:17:56 12° SE 02:20:03 16° ESE 02:22:41 10° ENE
OAO 3 Copernicus 4.2 02:15:44 10° WSW 02:20:45 78° SSE 02:25:46 10° ENE
Cosmos-2242 2.9 02:18:47 10° N 02:23:04 82° E 02:27:18 10° S
Cosmos 1633 4.5 02:29:09 13° E 02:29:14 13° E 02:31:02 10° ENE
CENTAUR R/B 3.3 02:21:09 10° NNW 02:29:40 79° ENE 02:37:50 13° SE
USA 267 3.9 02:25:08 10° ENE 02:30:48 31° SE 02:36:27 10° S
In-Cosmos 22 Rocket 4.4 02:25:51 10° SSW 02:31:06 68° W 02:36:25 10° N
Cosmos 44 Rocket 3.5 02:27:41 10° SSW 02:32:41 58° ESE 02:37:48 10° NE
Cosmos 1634 Rocket 4.0 02:30:52 10° N 02:37:09 76° E 02:43:21 10° S
Ariane Rocket 3.0 02:37:32 14° SSE 02:41:50 65° ENE 02:46:52 10° N
Helios 1A Rocket 3.5 02:37:55 10° S 02:41:51 57° W 02:45:50 10° NNW
ERS-2 2.0 02:38:36 10° NNE 02:42:15 89° WNW 02:45:52 10° SSW
IRS-1A Rocket 4.2 02:38:17 12° SSE 02:43:24 73° ENE 02:48:54 10° N
USA 238 DEB 4.0 02:37:00 10° NNW 02:44:27 87° WSW 02:50:46 16° SSE
USA 238 4.0 02:37:06 10° NNW 02:44:33 87° WSW 02:50:51 16° SSE
SEDSat Delta rocket 2.9 02:43:48 10° WSW 02:47:43 51° SSE 02:49:48 25° ESE
Cosmos 783 Rocket 4.4 02:42:58 10° S 02:48:06 68° ESE 02:53:15 10° NNE
OAO 2 Rocket 3.4 02:44:50 10° W 02:49:53 74° N 02:53:27 19° E
CZ-2C R/B 4.3 02:47:53 10° NNE 02:52:02 35° E 02:53:38 27° SE
Cosmos 1242 Rocket 2.6 02:49:04 10° N 02:52:35 54° E 02:53:50 34° SE
EPKM 3.9 02:52:25 10° SW 02:54:47 22° S 02:55:15 21° SSE
Cosmos 2221 3.2 02:51:00 10° NNE 02:54:58 36° E 02:56:12 30° ESE
USA 307 2.9 02:51:36 10° NW 02:55:51 68° NE 02:57:40 32° ESE
MOS 1 4.3 02:51:32 13° S 02:56:42 82° WSW 03:02:23 10° NNW
Terra 4.0 03:04:43 10° ENE 03:05:06 10° ENE 03:05:55 10° NE
IGS 5A 3.3 03:04:14 33° SSE 03:06:02 76° ENE 03:10:10 10° N
Hubble Space Telescope 1.2 03:03:06 10° WSW 03:06:57 39° S 03:07:16 38° SSE
Cosmos 1697 Rocket 3.1 03:01:47 10° N 03:07:15 47° ENE 03:09:29 32° ESE
Cosmos 2082 Rocket 2.1 03:03:00 10° SSW 03:08:35 76° ESE 03:14:13 10° NNE
Cosmos 1606 3.4 03:07:50 10° NNE 03:11:14 35° ENE 03:11:14 35° ENE
SPOT 3 Rocket 3.6 03:09:28 32° SSE 03:11:52 66° ENE 03:17:03 10° N
Cosmos 1833 Rocket 3.8 03:06:58 10° SW 03:12:20 45° WNW 03:17:45 10° N
USA 305 2.9 03:08:21 10° NW 03:12:32 73° SW 03:13:42 45° SSE
USA 308 2.8 03:08:27 10° NW 03:12:42 82° SW 03:13:51 47° SSE
Cosmos 773 Rocket 4.1 03:10:34 10° SSW 03:15:47 79° WNW 03:21:01 10° NNE
BREEZE-M R/B 3.6 03:06:57 10° SSW 03:16:03 43° SE 03:17:24 34° E
Cosmos 2151 3.7 03:23:48 36° ENE 03:23:48 36° ENE 03:27:11 10° NNE
SWAS 4.5 03:22:57 10° NNW 03:27:13 72° WSW 03:28:06 53° S
Landsat 7 4.0 03:28:04 35° S 03:29:59 68° WSW 03:34:44 10° NNW
Cosmos 1092 Rocket 4.3 03:29:20 40° SE 03:30:44 47° E 03:36:41 10° NNE
Centaur D AC-29 3.5 03:17:22 10° W 03:32:30 27° SW 03:35:11 21° S
Cosmos 2279 Rocket 4.4 03:27:17 10° NNW 03:33:21 60° W 03:37:33 21° SSW
Cosmos 1842 Rocket 3.7 03:31:02 10° N 03:35:31 75° W 03:36:31 52° SSW
GP-B 4.2 03:31:49 10° NNE 03:34:53 30° ENE 03:34:53 30° ENE
USA 306 3.6 03:32:31 10° WNW 03:36:32 41° SW 03:36:55 40° SW
Meteor 2-3 Rocket 3.9 03:36:26 46° ESE 03:36:54 48° E 03:42:18 10° NNE
Cosmos 1076 Rocket 3.8 03:39:35 43° SW 03:40:50 64° W 03:45:08 10° N
ERS-1 Rocket 3.6 03:40:52 38° ENE 03:40:57 38° ENE 03:45:34 10° N
Cosmos 2369 3.7 03:36:40 10° NNW 03:42:18 68° ENE 03:43:19 56° ESE
Spot 2 Rocket 3.5 03:41:46 56° ESE 03:42:19 60° ENE 03:47:22 10° N
Resurs 01 Rocket 3.0 03:46:24 25° SW 03:48:03 34° W 03:52:04 10° NNW
Cosmos 2026 Rocket 4.1 03:49:09 51° ESE 03:49:56 55° E 03:56:05 10° NNE
Atlas Centaur 2 3.5 03:46:27 10° WSW 03:47:12 15° WSW 03:47:12 15° WSW
BREEZE M DEB (TANK) 3.2 03:47:48 10° WSW 03:50:32 66° NNW 04:02:35 10° ENE
Cosmos 1980 Rocket 2.2 03:47:51 10° NNW 03:53:25 60° ENE 03:53:52 57° E
ATLAS 2AS CENTAUR R/B 4.4 03:47:02 10° WSW 03:54:13 37° NW 04:01:22 10° NNE
Cosmos 1627 Rocket 4.5 03:54:38 57° SE 03:55:35 64° E 04:01:50 10° NNE
Cosmos 1538 Rocket 4.2 03:53:58 35° SW 03:56:09 68° WNW 04:01:21 10° N
Nadezhda 4 Rocket 4.4 03:52:26 22° SSW 03:56:24 58° W 04:02:29 10° N
RESURS DK-1 4.2 03:54:05 10° SW 03:57:45 30° WNW 04:01:28 10° N
Cosmos 158 Rocket 3.8 03:58:13 83° S 03:58:24 87° ESE 04:03:36 10° NNE
Cosmos 2322 Rocket 4.3 03:57:57 10° NNE 04:00:33 13° NE 04:00:59 13° ENE
USA 245 4.4 04:00:12 50° SSW 04:01:30 65° WSW 04:06:38 10° NNW
H-2A R/B 3.7 04:01:19 10° WSW 04:02:15 14° WSW 04:02:15 14° WSW
OAO 3 Copernicus 4.4 04:00:21 10° W 04:05:23 72° N 04:05:31 71° NNE
SPOT 1/Viking Rocket 4.4 04:09:03 38° SW 04:10:04 43° W 04:15:01 10° NNW
USA 267 3.7 04:07:31 10° NE 04:13:56 60° NW 04:20:20 10° WSW
ARIANE 5 R/B 3.2 04:16:06 58° NW 04:16:06 58° NW 04:19:52 10° NNW
ATLAS 3B R/B 3.0 04:11:50 10° NNW 04:18:54 57° ENE 04:20:00 52° E
SPOT 5 3.5 04:23:22 47° NNW 04:23:22 47° NNW 04:26:30 10° NNW
Cosmos 1428 Rocket 4.4 04:21:28 68° SW 04:22:14 78° W 04:28:22 10° N
SL-16 R/B 3.5 04:21:12 10° N 04:25:32 28° NE 04:25:32 28° NE
Cosmos 1553 Rocket 4.5 04:28:28 10° N 04:33:26 47° NE 04:33:26 47° NE
Terra 2.8 04:43:36 44° NW 04:43:36 44° NW 04:46:57 10° NNW
Cosmos 371 Rocket 4.4 04:40:27 10° NNW 04:43:47 39° NW 04:43:47 39° NW
Cosmos 2333 Rocket 4.5 05:07:08 10° NNE 05:09:38 14° NE 05:09:38 14° NE
Cosmos 2360 Rocket 3.7 05:11:12 10° N 05:14:46 29° NE 05:14:46 29° NE
Cosmos 2322 Rocket 3.5 05:39:33 10° NNW 05:42:47 36° NNW 05:42:47 36° NNW
ATLAS 3B R/B 4.4 06:03:28 10° WNW 06:07:15 23° W 06:07:15 23° W
SL-16 R/B 4.2 06:05:08 10° NW 06:07:23 21° WNW 06:07:23 21° WNW
Cosmos 2219 Rocket 3.8 06:08:04 10° N 06:11:15 28° NNE 06:11:15 28° NNE
COSMOS 2455 4.1 06:27:36 38° N 06:27:36 38° N 06:31:30 10° NNE
USA 234 4.0 06:28:20 45° NW 06:28:20 45° NW 06:32:38 10° NW
ATLAS 5 CENTAUR R/B 4.0 06:48:45 10° N 06:53:47 28° NE 06:54:21 28° ENE
Lacrosse 5 4.4 06:57:57 15° NE 06:57:57 15° NE 06:58:48 10° NE
Cosmos 2333 Rocket 3.9 06:49:05 10° NNW 06:51:37 28° NNW 06:51:37 28° NNW
Cosmos 2360 Rocket 4.5 06:55:22 10° NW 06:56:30 15° NW 06:56:30 15° NW
Resurs 1-4 Rocket 4.3 07:01:23 10° NE 07:03:26 19° ENE 07:03:26 19° ENE
Cosmos 2297 Rocket 3.5 07:18:52 37° NNE 07:18:52 37° NNE 07:22:10 10° NNE
NOSS 3-1 (C) 4.3 07:12:00 10° NW 07:18:37 63° WNW 07:18:37 63° WNW
Cosmos 2227 Rocket 3.4 07:29:32 38° NNE 07:29:32 38° NNE 07:32:57 10° NNE
Cosmos 2237 Rocket 3.4 07:22:19 10° N 07:26:22 38° NNE 07:26:22 38° NNE
USA 229 DEB 4.0 07:23:52 10° NNW 07:30:34 73° N 07:30:34 73° N
USA 229 4.0 07:23:58 10° NNW 07:30:42 73° N 07:30:42 73° N
CZ-2D R/B 3.3 07:38:48 10° NNE 07:42:21 40° NE 07:42:21 40° NE
ADEOS II 3.9 07:41:32 10° NE 07:44:45 24° ENE 07:44:45 24° ENE
SL-16 R/B 4.1 07:46:56 10° N 07:51:27 24° ENE 07:53:48 18° E
NOSS 3-1 (A) 4.1 07:43:55 10° NW 07:51:23 73° W 07:51:23 73° W
Cosmos 2263 Rocket 4.1 07:54:29 19° E 07:54:29 19° E 07:57:59 10° NE
Cosmos 2344 4.1 08:04:50 42° ESE 08:05:19 42° ESE 08:12:10 10° NE
Cosmos 2219 4.4 08:16:32 33° NW 08:16:32 33° NW 08:20:44 10° N
Helios 1B rocket 4.5 08:13:06 10° NNE 08:14:58 26° NNE 08:14:58 26° NNE
Cosmos 2251 Rocket 4.2 08:36:33 47° NNW 08:36:33 47° NNW 08:40:41 10° N
Cosmos 2082 4.2 08:36:22 50° NW 08:36:22 50° NW 08:41:18 10° N
IDEFIX/ARIANE 42P 3.3 08:31:23 10° NNE 08:36:19 44° E 08:36:25 44° ESE
Lacrosse 5 3.5 08:37:08 24° NW 08:37:08 24° NW 08:41:12 10° NNE
ATLAS 5 CENTAUR R/B 3.6 08:32:42 10° NW 08:35:47 30° WNW 08:35:47 30° WNW
Cosmos 2184 Rocket 4.2 08:44:11 56° WNW 08:44:11 56° WNW 08:50:02 10° N
SL-16 R/B 2.7 08:45:15 57° WNW 08:45:15 57° WNW 08:50:39 10° NNW
Resurs 1-4 Rocket 3.3 08:40:44 10° N 08:44:30 31° NW 08:44:30 31° NW
USA 215 4.0 08:40:51 10° ENE 08:46:52 39° SE 08:47:58 36° SSE
Cosmos 1733 Rocket 4.3 08:50:26 35° NNW 08:50:26 35° NNW 08:53:13 10° N
Cosmos 1295 Rocket 4.3 08:49:06 75° S 08:49:40 89° E 08:55:49 10° N
Cosmos 2154 Rocket 3.8 08:50:41 74° WSW 08:51:00 76° W 08:57:12 10° N
Cosmos 1190 Rocket 4.3 08:51:32 55° ESE 08:51:49 56° ESE 08:57:00 10° NNE
SL-8 R/B 4.3 08:53:11 52° NNW 08:53:11 52° NNW 08:57:29 10° NE
Cosmos 1140 Rocket 3.4 08:54:55 79° ESE 08:54:55 79° ESE 09:00:11 10° NNE
Cosmos 2297 Rocket 4.4 09:00:40 11° WNW 09:01:14 12° NW 09:03:05 10° NW
ASTRO E2 4.5 09:05:37 25° ESE 09:05:37 25° ESE 09:07:28 10° E
Meteor 1-21 4.5 08:57:54 10° N 09:03:41 69° E 09:05:53 38° SSE
MSX 4.0 09:02:50 10° NNE 09:08:33 68° ESE 09:10:10 46° SSE
Okean 2 3.6 09:05:18 10° N 09:09:08 68° NE 09:09:08 68° NE
Cosmos 2237 Rocket 4.3 09:07:26 10° NW 09:08:08 12° WNW 09:08:08 12° WNW
Cosmos 2227 Rocket 4.3 09:11:21 12° WNW 09:11:58 13° NW 09:14:24 10° NNW
ARIANE 5 R/B 3.4 09:08:39 10° NNE 09:13:36 45° E 09:15:40 30° SSE
Meteor 1-28 Rocket 4.3 09:16:25 36° NNW 09:16:25 36° NNW 09:18:45 10° NNW
ADEOS Rocket 3.3 09:16:08 40° W 09:16:08 40° W 09:20:40 10° NNW
Milstar 3 3.5 09:15:43 33° S 09:16:29 34° SSE 09:22:22 10° E
CZ-2D R/B 4.0 09:20:36 10° NNW 09:23:38 15° WNW 09:23:40 15° WNW
Cosmos 1782 Rocket 3.8 09:23:30 49° SE 09:24:24 62° E 09:28:42 10° NNE
ADEOS II 3.1 09:20:56 10° N 09:25:30 31° WNW 09:25:41 31° WNW
SL-8 Rocket 4.0 09:24:57 34° S 09:27:52 81° E 09:34:03 10° N
IRS-1D 4.1 09:24:21 10° N 09:28:54 37° WNW 09:29:10 37° W
Cosmos 2227 4.2 09:27:46 51° SW 09:29:02 67° WNW 09:34:38 10° NNE
Delta 142 4.3 09:29:33 47° SW 09:30:36 54° S 09:35:38 10° ESE
Cosmos 2366 rocket 4.2 09:26:46 25° S 09:30:39 69° E 09:36:58 10° NNE
CZ-3 R/B 4.5 09:15:05 27° SSW 09:31:48 42° SSE 09:42:46 10° E
NOSS 3-3 (A) 4.2 09:32:01 40° W 09:33:34 50° NW 09:39:36 10° NNE
ATLAS CENTAUR R/B 1.2 09:33:48 63° NW 09:33:48 63° NW 09:37:28 10° NNE
NOSS 3-3 (C) 4.2 09:32:09 40° W 09:33:41 50° NW 09:39:42 10° NNE
Cosmos 676 Rocket 4.0 09:32:40 43° S 09:34:27 85° ESE 09:39:48 10° NNE
IRS-1C 4.0 09:29:08 10° NNE 09:34:29 86° WNW 09:36:27 41° SSW
Iridium 4 Rocket 4.1 09:29:19 10° NNW 09:34:37 43° W 09:35:32 40° WSW
SL-16 R/B 2.6 09:30:24 10° NW 09:35:34 40° WSW 09:35:34 40° WSW
Cosmos 2263 Rocket 2.6 09:36:12 39° WSW 09:37:31 46° WNW 09:42:59 10° N
Iridium 45 4.4 09:38:41 81° S 09:38:50 89° W 09:42:21 10° N
Cosmos 407 Rocket 4.4 09:41:19 31° W 09:42:10 32° WNW 09:46:54 10° N
Cosmos 1707 3.0 09:41:40 10° NNW 09:45:07 48° WNW 09:45:07 48° WNW
Spot 1 3.8 09:47:01 25° SSE 09:49:25 87° WSW 09:53:31 10° NNW
CZ-4C R/B 3.3 09:43:12 10° NNW 09:50:56 76° ENE 09:59:35 10° SE
ALOS 3.9 09:47:33 10° NE 09:51:43 32° E 09:55:50 10° SSE
Delta 128 4.0 09:51:46 39° SSW 09:52:35 44° S 09:57:14 10° ESE
Cosmos 2341 Rocket 4.3 09:51:38 31° SW 09:54:04 46° W 10:00:03 10° N
Cosmos 1733 3.5 09:52:52 28° S 09:54:46 66° E 09:58:35 10° NNE
Cosmos 2218 Rocket 4.0 09:52:26 25° SSW 09:56:23 71° W 10:02:44 10° N
Cosmos 1766 4.0 09:54:22 18° SSE 09:57:00 50° E 10:00:47 10° NNE
SL-08 R/B 3.6 09:52:19 10° SSE 09:57:13 75° ENE 10:02:10 10° N
In-Cosmos 22 4.3 09:52:41 10° NNW 09:58:21 60° W 10:02:30 18° S
Cosmos 1300 Rocket 3.6 10:01:45 19° S 10:04:47 77° E 10:09:08 10° N
Meteor 1-15 Rocket 4.4 10:00:39 13° S 10:06:01 80° E 10:11:55 10° N
Cosmos 1727 Rocket 4.4 10:01:57 10° N 10:08:08 64° E 10:14:21 10° SSE
Cosmos 1844 4.4 10:07:37 10° S 10:12:58 51° ESE 10:18:20 10° NNE
Cosmos 1975 Rocket 3.0 10:10:27 10° NNW 10:14:49 69° W 10:19:07 10° S
Cosmos 1943 3.2 10:09:34 10° NNW 10:15:18 86° WSW 10:20:59 10° SSE
IDEFIX/ARIANE 42P 4.1 10:12:02 10° NNW 10:15:31 19° WNW 10:17:13 16° W
Cosmos 1340 2.7 10:13:32 10° NNW 10:17:12 55° W 10:20:00 16° S
Cosmos 1400 Rocket 3.0 10:16:10 27° SW 10:17:57 48° W 10:21:43 10° N
CZ-3B R/B 3.6 10:12:03 19° WSW 10:19:08 44° S 10:24:13 10° ESE
CZ-2C R/B 2.2 10:14:44 10° N 10:19:18 73° WNW 10:23:07 15° SSW
Cosmos 1626 2.0 10:17:33 10° N 10:21:14 85° W 10:24:54 10° S
Cosmos 1315 Rocket 3.8 10:21:37 10° S 10:25:34 49° E 10:29:32 10° NNE
Cosmos 1674 3.3 10:24:04 10° NNW 10:27:34 35° W 10:30:00 17° SSW
USA 215 3.7 10:23:37 10° NNE 10:29:52 50° NW 10:35:19 14° WSW
PSLV R/B 3.6 10:33:05 10° NNE 10:37:22 83° E 10:41:36 10° S
Cosmos 1850 Rocket 4.1 10:33:53 11° SSW 10:38:52 65° WNW 10:44:07 10° N
METEOR-M 4.3 10:35:05 10° NNE 10:40:27 77° ESE 10:45:46 10° S
ASTRO E2 2.7 10:40:22 13° W 10:43:51 67° S 10:47:49 10° E
Cosmos 468 Rocket 4.0 10:42:21 10° NNW 10:47:40 89° ENE 10:52:54 10° SSE
Cosmos 1025 Rocket 3.2 10:44:20 10° NNW 10:48:31 50° W 10:52:42 10° SSW
Meteor 2-5 Rocket 3.9 10:42:59 10° N 10:48:56 83° E 10:54:44 10° S
Cosmos 1821 Rocket 4.0 10:43:16 10° SSW 10:49:21 61° W 10:55:24 10° N
Cosmos 44 3.7 10:45:44 10° NW 10:50:28 40° WSW 10:54:55 10° S
Cosmos 1844 Rocket 2.9 10:45:34 10° SW 10:51:05 56° WNW 10:56:39 10° NNE
ARIANE 5 R/B 4.1 10:48:51 10° NNW 10:52:18 18° WNW 10:55:46 10° WSW
Okean 2 Rocket 3.9 10:55:15 10° SW 10:59:18 33° W 11:03:23 10° NNW
Aureole 1 Rocket 3.7 10:55:13 10° SSW 11:00:03 85° WNW 11:06:33 10° NNE
FENGYUN 3A 4.2 10:55:49 10° N 11:00:55 43° WNW 11:05:58 10° SW
CZ-2C R/B 3.9 10:59:04 10° NNW 11:02:09 25° WNW 11:05:16 10° SW
Cosmos 1603 4.5 10:57:50 10° NW 11:02:37 30° WSW 11:07:27 10° SSW
BREEZE M DEB (TANK) 2.3 11:01:26 10° SW 11:07:29 81° NW 11:10:03 10° NE
DNEPR-1 R/B 4.3 11:02:36 10° SW 11:08:19 54° WNW 11:13:06 10° NNE
MOS 1 Rocket 3.6 11:04:08 10° S 11:08:57 55° W 11:14:05 10° NNW
Cosmos 1758 3.4 11:06:49 10° S 11:10:45 85° E 11:14:43 10° N
Cosmos 1867 3.7 11:05:57 10° SW 11:11:19 64° WNW 11:16:45 10° NNE
